FW4179 Weather Reports


time (UTC)temp
F
wind
direction
speed
knots
gust
knots
rain 1hr
in
rain 24hr
in
rain mn
in
humidity
%
barometer
mb
20260509011551 63 0 0.0 0.0 0.00 0.00 0.00 58 1012.4
20260509010046 64 0 0.0 0.0 0.00 0.00 0.00 57 1012.5
20260509004543 65 0 0.0 0.9 0.00 0.00 0.00 56 1012.5
20260509003053 66 0 0.0 0.0 0.00 0.00 0.00 54 1012.6
20260509001542 67 0 0.0 1.7 0.00 0.00 0.00 53 1012.5
20260509000044 68 229 0.9 3.5 0.00 0.00 0.00 51 1012.7
20260508234545 69 0 0.0 0.0 0.00 0.00 0.00 50 1012.7
20260508233046 70 0 0.0 0.0 0.00 0.00 0.00 47 1012.8
20260508231553 70 0 0.9 3.5 0.00 0.00 0.00 46 1012.7
20260508230052 71 0 0.0 3.5 0.00 0.00 0.00 41 1012.5
20260508224553 71 0 0.9 3.5 0.00 0.00 0.00 47 1012.5
20260508223046 72 254 0.0 4.3 0.00 0.00 0.00 42 1012.5
20260508221545 72 255 1.7 5.2 0.00 0.00 0.00 41 1012.7
20260508220052 72 243 1.7 6.1 0.00 0.00 0.00 36 1012.9
20260508214548 72 126 1.7 5.2 0.00 0.00 0.00 39 1013.0
20260508213051 72 124 1.7 4.3 0.00 0.00 0.00 37 1012.9
20260508211548 72 143 1.7 5.2 0.00 0.00 0.00 38 1013.0
20260508210046 72 245 1.7 5.2 0.00 0.00 0.00 35 1013.1
20260508204547 72 252 0.9 6.1 0.00 0.00 0.00 34 1013.1
20260508203051 72 264 2.6 6.1 0.00 0.00 0.00 35 1013.2
20260508201547 71 147 1.7 6.1 0.00 0.00 0.00 38 1013.7
20260508200046 71 273 1.7 7.0 0.00 0.00 0.00 38 1013.7
20260508194600 71 134 0.9 6.1 0.00 0.00 0.00 38 1013.9
20260508193105 71 193 0.9 5.2 0.00 0.00 0.00 40 1014.2
20260508191550 70 63 0.9 6.1 0.00 0.00 0.00 41 1014.3
20260508190107 70 134 0.9 5.2 0.00 0.00 0.00 40 1015.0
20260508184543 69 148 2.6 6.1 0.00 0.00 0.00 44 1015.3
20260508183045 69 194 0.0 3.5 0.00 0.00 0.00 45 1015.5
20260508181552 68 144 1.7 4.3 0.00 0.00 0.00 44 1015.7
20260508180046 68 0 0.9 4.3 0.00 0.00 0.00 44 1016.0
20260508174548 67 134 1.7 7.0 0.00 0.00 0.00 43 1016.2
20260508173045 66 153 0.0 5.2 0.00 0.00 0.00 50 1016.2
20260508171549 66 133 1.7 6.1 0.00 0.00 0.00 46 1016.5
20260508170044 66 0 0.9 3.5 0.00 0.00 0.00 53 1016.8
20260508164544 64 271 1.7 7.8 0.00 0.00 0.00 42 1017.2
20260508163100 64 0 2.6 7.0 0.00 0.00 0.00 41 1017.4
20260508161554 63 130 0.9 6.1 0.00 0.00 0.00 47 1017.9
20260508160047 63 76 0.9 7.0 0.00 0.00 0.00 41 1018.1
20260508154547 62 107 1.7 7.8 0.00 0.01 0.00 49 1018.1
20260508153059 62 132 0.9 7.8 0.00 0.01 0.00 53 1018.2
20260508151548 62 155 0.9 6.1 0.00 0.01 0.00 52 1018.5
20260508150046 61 139 0.9 6.1 0.00 0.01 0.00 56 1018.5
20260508144547 60 0 0.0 4.3 0.00 0.01 0.00 56 1018.5
20260508143102 58 149 0.9 5.2 0.00 0.01 0.00 64 1018.5
20260508141541 57 0 0.0 2.6 0.00 0.01 0.00 69 1018.8
20260508140046 54 0 0.0 1.7 0.00 0.01 0.00 77 1018.8
20260508134545 52 0 0.0 1.7 0.00 0.01 0.00 82 1018.7
20260508133048 50 0 0.0 0.9 0.00 0.01 0.00 84 1018.6
20260508131547 49 0 0.0 2.6 0.00 0.01 0.00 87 1018.7
20260508130047 47 136 0.0 0.0 0.00 0.01 0.00 92 1018.5
20260508124543 46 0 0.0 0.0 0.00 0.01 0.00 96 1018.4
20260508123051 45 0 0.0 0.0 0.00 0.01 0.00 97 1018.4
20260508121551 43 0 0.0 0.0 0.00 0.01 0.00 97 1018.4
20260508120101 43 0 0.0 0.0 0.00 0.01 0.00 97 1018.3
20260508114547 42 0 0.0 0.0 0.00 0.01 0.00 97 1018.1
20260508113050 42 0 0.0 0.0 0.00 0.01 0.00 97 1017.9
20260508111546 42 0 0.0 0.0 0.00 0.01 0.00 97 1017.7
20260508104545 42 0 0.0 0.0 0.00 0.01 0.00 96 1017.3
20260508103049 42 0 0.0 0.0 0.00 0.01 0.00 94 1017.1
20260508101545 43 0 0.0 0.0 0.00 0.01 0.00 95 1016.9
20260508094549 43 0 0.0 0.0 0.00 0.01 0.00 95 1016.8
20260508093050 43 0 0.0 0.0 0.00 0.01 0.00 95 1016.7
20260508091607 43 0 0.0 0.0 0.00 0.01 0.00 94 1016.7
20260508090049 43 0 0.0 0.0 0.00 0.01 0.00 94 1016.6
20260508084548 42 0 0.0 0.0 0.00 0.01 0.00 93 1016.5
20260508083049 43 0 0.0 0.0 0.00 0.01 0.00 92 1016.6
20260508081608 43 0 0.0 0.0 0.00 0.01 0.00 91 1016.7
20260508080059 44 0 0.0 0.0 0.00 0.01 0.00 90 1016.7
20260508074545 45 0 0.0 0.0 0.00 0.01 0.00 90 1016.6
20260508073050 45 0 0.0 0.0 0.00 0.01 0.00 90 1016.7
20260508071547 45 0 0.0 0.0 0.00 0.01 0.00 89 1016.7
20260508070053 46 0 0.0 0.0 0.00 0.01 0.00 88 1016.8
20260508064546 47 0 0.0 0.0 0.00 0.01 0.00 86 1016.8
20260508063050 47 0 0.0 0.0 0.00 0.01 0.00 84 1016.8
20260508061553 47 0 0.0 0.0 0.00 0.01 0.00 84 1017.1
20260508060105 47 0 0.0 0.0 0.00 0.01 0.00 85 1017.0
20260508054626 47 0 0.0 0.0 0.00 0.01 0.00 86 1017.2
20260508053052 47 0 0.0 0.0 0.00 0.01 0.00 86 1017.3
20260508051543 48 0 0.0 0.0 0.00 0.01 0.00 85 1017.1
20260508050047 48 0 0.0 0.0 0.00 0.01 0.00 84 1017.2
20260508044548 49 0 0.0 0.0 0.00 0.01 0.01 83 1017.2
20260508043049 50 0 0.0 0.0 0.00 0.01 0.01 81 1017.2
20260508041545 50 0 0.0 0.0 0.00 0.01 0.01 78 1017.2
20260508040047 51 0 0.0 0.0 0.00 0.01 0.01 78 1017.1
20260508034551 51 0 0.0 0.0 0.00 0.02 0.01 77 1017.0
20260508033048 52 0 0.0 0.0 0.00 0.02 0.01 74 1017.0
20260508031553 53 0 0.0 0.0 0.00 0.02 0.01 70 1016.9
20260508030050 53 0 0.0 0.0 0.00 0.02 0.01 70 1016.9
20260508024604 54 0 0.0 0.0 0.00 0.02 0.01 72 1017.0
20260508023047 54 0 0.0 0.0 0.00 0.02 0.01 70 1016.8
20260508021545 54 0 0.0 0.0 0.00 0.02 0.01 70 1016.8
20260508020051 54 0 0.0 0.0 0.00 0.02 0.01 68 1016.7
20260508014547 55 0 0.0 0.0 0.00 0.02 0.01 68 1016.4
20260508013051 56 0 0.0 0.0 0.00 0.02 0.01 69 1016.0